Location: Woodland Altars Campground
(39.0410°N, 83.3840°W)
Time: 05:46:38
(UTC-04:00)

ISS - Visible Passes

Search period start: 17 October 2018 00:00
Search period end: 27 October 2018 00:00
Orbit: 403 x 408 km, 51.6° (Epoch: 17 October)

Date Brightness Start Highest point End Pass type
(mag) Time Alt. Az. Time Alt. Az. Time Alt. Az.
24 Oct -1.3 07:22:09 10° S 07:24:50 24° SE 07:27:32 10° ENE visible
25 Oct -0.7 06:31:36 10° SSE 06:33:00 12° SE 06:34:25 10° ESE visible
26 Oct -3.4 07:13:50 10° SW 07:17:04 64° SE 07:20:19 10° ENE visible
